Temp: 9.6°C   Baro: 1017.5mb
  Wind: 6.9mph   Dir: SW (219°)
  Rain: 0.0mm (0.0mm/hr)
  Solar: 44W/m2  Hum: 78%
 
Bath Spa Weather Historical Data
Daily Summary for December 8, 2018 Units:  Metric    English   Both
Next Day »
Daily Weekly Monthly Yearly Custom
  High: Low: Average:
Temperature: 12.0 °C 7.9 °C 9.7 °C
Dew Point: 9.9 °C 5.7 °C 7.4 °C
Humidity: 91% 79% 85%
Wind Speed: 62.8km/h 3.2km/h 18.7km/h
Wind Gust: 62.8km/h - -
Wind direction- - West
Pressure: 1007.3 hPa 999.5 hPa -
Precipitation: 4.3 mm    
Historical Graphs
 
 
Tabular Data for December 8, 2018
Time Temperature Dew Point Pressure Wind direction Wind Speed Wind Gust Humidity Rainfall Rate (Hourly) solar
00:04 8.0 °C 6.3 °C 1005.3 hPa WSW 9.7 km/h 17.7 km/h 89% 0.0 mm 0.00 W/m2
00:09 7.9 °C 6.2 °C 1005.3 hPa WSW 4.7 km/h 17.7 km/h 89% 0.0 mm 0.00 W/m2
00:14 7.9 °C 6.2 °C 1005.3 hPa West 13.0 km/h 19.3 km/h 89% 0.0 mm 0.00 W/m2
00:19 8.0 °C 6.3 °C 1005.3 hPa West 9.7 km/h 24.1 km/h 89% 0.0 mm 0.00 W/m2
00:24 8.2 °C 6.5 °C 1005.0 hPa West 11.1 km/h 35.4 km/h 89% 0.3 mm 0.00 W/m2
00:29 8.5 °C 6.6 °C 1005.3 hPa West 40.2 km/h 40.2 km/h 88% 0.3 mm 0.00 W/m2
00:34 8.7 °C 6.7 °C 1005.3 hPa West 16.3 km/h 20.9 km/h 87% 0.3 mm 0.00 W/m2
00:39 8.7 °C 6.5 °C 1005.3 hPa WNW 11.1 km/h 24.1 km/h 86% 0.3 mm 0.00 W/m2
00:44 8.9 °C 6.7 °C 1005.0 hPa WNW 33.8 km/h 33.8 km/h 86% 0.3 mm 0.00 W/m2
00:49 9.0 °C 6.6 °C 1005.0 hPa NW 17.7 km/h 33.8 km/h 85% 0.3 mm 0.00 W/m2
00:54 9.0 °C 6.4 °C 1004.6 hPa NW 14.3 km/h 35.4 km/h 84% 0.3 mm 0.00 W/m2
00:59 9.0 °C 6.4 °C 1005.0 hPa West 41.8 km/h 41.8 km/h 84% 0.3 mm 0.00 W/m2
01:04 9.0 °C 6.4 °C 1004.6 hPa WNW 13.0 km/h 33.8 km/h 84% 0.3 mm 0.00 W/m2
01:09 8.8 °C 6.4 °C 1004.6 hPa WNW 7.9 km/h 20.9 km/h 85% 0.3 mm 0.00 W/m2
01:14 8.7 °C 6.5 °C 1004.6 hPa West 16.3 km/h 37.0 km/h 86% 0.5 mm 0.00 W/m2
01:19 8.9 °C 6.5 °C 1004.6 hPa WNW 24.1 km/h 35.4 km/h 85% 0.5 mm 0.00 W/m2
01:24 8.9 °C 6.3 °C 1004.6 hPa West 19.5 km/h 29.0 km/h 84% 0.3 mm 0.00 W/m2
01:29 9.0 °C 6.3 °C 1004.6 hPa West 28.8 km/h 30.6 km/h 83% 0.3 mm 0.00 W/m2
01:34 9.0 °C 6.3 °C 1004.6 hPa West 14.3 km/h 29.0 km/h 83% 0.3 mm 0.00 W/m2
01:39 9.2 °C 6.3 °C 1004.6 hPa WNW 11.1 km/h 48.3 km/h 82% 0.3 mm 0.00 W/m2
01:44 9.3 °C 6.4 °C 1004.6 hPa WSW 20.9 km/h 48.3 km/h 82% 0.3 mm 0.00 W/m2
01:49 9.4 °C 6.3 °C 1004.6 hPa WNW 24.1 km/h 41.8 km/h 81% 0.3 mm 0.00 W/m2
01:54 9.4 °C 6.5 °C 1004.6 hPa West 62.8 km/h 62.8 km/h 82% 0.3 mm 0.00 W/m2
01:59 9.5 °C 6.6 °C 1004.6 hPa NW 9.7 km/h 59.5 km/h 82% 0.3 mm 0.00 W/m2
02:04 9.4 °C 6.5 °C 1004.6 hPa WNW 13.0 km/h 41.8 km/h 82% 0.3 mm 0.00 W/m2
02:09 9.4 °C 6.5 °C 1005.0 hPa West 24.1 km/h 35.4 km/h 82% 0.0 mm 0.00 W/m2
02:14 9.3 °C 6.6 °C 1004.6 hPa WSW 25.9 km/h 48.3 km/h 83% 0.0 mm 0.00 W/m2
02:19 9.4 °C 6.5 °C 1005.0 hPa West 28.8 km/h 43.4 km/h 82% 0.0 mm 0.00 W/m2
02:24 9.4 °C 6.5 °C 1005.0 hPa WNW 32.0 km/h 37.0 km/h 82% 0.0 mm 0.00 W/m2
02:29 9.4 °C 6.5 °C 1005.0 hPa West 16.3 km/h 29.0 km/h 82% 0.0 mm 0.00 W/m2
02:34 9.5 °C 6.6 °C 1004.6 hPa West 27.4 km/h 33.8 km/h 82% 0.0 mm 0.00 W/m2
02:39 9.6 °C 6.5 °C 1005.0 hPa West 22.7 km/h 48.3 km/h 81% 0.0 mm 0.00 W/m2
02:44 9.6 °C 6.3 °C 1005.0 hPa NW 19.5 km/h 38.6 km/h 80% 0.0 mm 0.00 W/m2
02:49 9.6 °C 6.5 °C 1005.3 hPa WSW 20.9 km/h 53.1 km/h 81% 0.0 mm 0.00 W/m2
02:54 9.6 °C 6.5 °C 1005.0 hPa WNW 28.8 km/h 43.4 km/h 81% 0.0 mm 0.00 W/m2
02:59 9.5 °C 6.4 °C 1005.0 hPa West 16.3 km/h 43.4 km/h 81% 0.0 mm 0.00 W/m2
03:04 9.4 °C 6.3 °C 1005.0 hPa WNW 27.4 km/h 40.2 km/h 81% 0.0 mm 0.00 W/m2
03:09 9.4 °C 6.3 °C 1005.3 hPa WNW 28.8 km/h 40.2 km/h 81% 0.0 mm 0.00 W/m2
03:14 9.5 °C 6.4 °C 1005.3 hPa WNW 30.6 km/h 33.8 km/h 81% 0.0 mm 0.00 W/m2
03:19 9.6 °C 6.5 °C 1005.0 hPa West 16.3 km/h 51.5 km/h 81% 0.0 mm 0.00 W/m2
03:24 9.5 °C 6.6 °C 1005.0 hPa WNW 16.3 km/h 35.4 km/h 82% 0.0 mm 0.00 W/m2
03:29 9.5 °C 6.6 °C 1005.3 hPa WNW 30.6 km/h 43.4 km/h 82% 0.0 mm 0.00 W/m2
03:34 9.5 °C 6.6 °C 1005.3 hPa West 30.6 km/h 45.1 km/h 82% 0.0 mm 0.00 W/m2
03:39 9.5 °C 6.4 °C 1005.3 hPa West 32.0 km/h 51.5 km/h 81% 0.0 mm 0.00 W/m2
03:44 9.5 °C 6.2 °C 1005.3 hPa WNW 17.7 km/h 38.6 km/h 80% 0.0 mm 0.00 W/m2
03:49 9.5 °C 6.2 °C 1005.3 hPa West 22.7 km/h 25.7 km/h 80% 0.0 mm 0.00 W/m2
03:54 9.4 °C 6.1 °C 1005.0 hPa WNW 27.4 km/h 53.1 km/h 80% 0.0 mm 0.00 W/m2
03:59 9.5 °C 6.0 °C 1005.0 hPa NW 14.3 km/h 46.7 km/h 79% 0.0 mm 0.00 W/m2
04:04 9.4 °C 5.9 °C 1005.3 hPa WSW 19.5 km/h 40.2 km/h 79% 0.0 mm 0.00 W/m2
04:09 9.3 °C 6.0 °C 1005.3 hPa West 25.9 km/h 38.6 km/h 80% 0.0 mm 0.00 W/m2
04:14 9.3 °C 6.2 °C 1005.3 hPa NW 25.9 km/h 35.4 km/h 81% 0.0 mm 0.00 W/m2
04:19 9.2 °C 6.1 °C 1005.3 hPa WNW 30.6 km/h 45.1 km/h 81% 0.0 mm 0.00 W/m2
04:24 9.2 °C 6.1 °C 1005.3 hPa West 11.1 km/h 33.8 km/h 81% 0.0 mm 0.00 W/m2
04:29 9.2 °C 6.1 °C 1005.3 hPa West 32.0 km/h 45.1 km/h 81% 0.0 mm 0.00 W/m2
04:34 9.0 °C 5.9 °C 1005.6 hPa NW 19.5 km/h 35.4 km/h 81% 0.0 mm 0.00 W/m2
04:39 9.0 °C 5.9 °C 1005.6 hPa WNW 32.0 km/h 43.4 km/h 81% 0.0 mm 0.00 W/m2
04:44 9.0 °C 6.1 °C 1005.6 hPa WNW 22.7 km/h 33.8 km/h 82% 0.0 mm 0.00 W/m2
04:49 9.0 °C 6.3 °C 1005.6 hPa West 33.8 km/h 41.8 km/h 83% 0.0 mm 0.00 W/m2
04:54 9.1 °C 6.2 °C 1005.6 hPa NW 20.9 km/h 46.7 km/h 82% 0.0 mm 0.00 W/m2
04:59 9.2 °C 6.1 °C 1005.6 hPa NW 43.6 km/h 43.4 km/h 81% 0.0 mm 0.00 W/m2
05:04 9.2 °C 6.1 °C 1006.0 hPa WNW 14.3 km/h 40.2 km/h 81% 0.0 mm 0.00 W/m2
05:09 9.0 °C 6.1 °C 1006.0 hPa WNW 19.5 km/h 49.9 km/h 82% 0.0 mm 0.00 W/m2
05:14 8.8 °C 5.9 °C 1006.0 hPa West 14.3 km/h 32.2 km/h 82% 0.0 mm 0.00 W/m2
05:19 8.8 °C 5.9 °C 1006.0 hPa WNW 22.7 km/h 35.4 km/h 82% 0.0 mm 0.00 W/m2
05:24 8.8 °C 5.9 °C 1006.0 hPa NW 24.1 km/h 35.4 km/h 82% 0.0 mm 0.00 W/m2
05:29 8.9 °C 5.8 °C 1006.0 hPa West 43.4 km/h 43.4 km/h 81% 0.0 mm 0.00 W/m2
05:34 8.9 °C 5.8 °C 1006.3 hPa West 22.7 km/h 27.4 km/h 81% 0.0 mm 0.00 W/m2
05:39 8.8 °C 5.7 °C 1006.3 hPa NW 19.5 km/h 33.8 km/h 81% 0.0 mm 0.00 W/m2
05:44 8.9 °C 5.8 °C 1006.3 hPa WNW 17.7 km/h 29.0 km/h 81% 0.0 mm 0.00 W/m2
05:49 8.9 °C 6.0 °C 1006.0 hPa WNW 11.1 km/h 38.6 km/h 82% 0.0 mm 0.00 W/m2
05:54 8.7 °C 5.8 °C 1006.3 hPa WNW 20.9 km/h 24.1 km/h 82% 0.0 mm 0.00 W/m2
05:59 8.7 °C 6.0 °C 1006.3 hPa WNW 14.3 km/h 32.2 km/h 83% 0.0 mm 0.00 W/m2
06:04 8.6 °C 5.9 °C 1006.3 hPa West 6.4 km/h 32.2 km/h 83% 0.0 mm 0.00 W/m2
06:09 8.6 °C 6.0 °C 1006.3 hPa West 9.7 km/h 20.9 km/h 84% 0.0 mm 0.00 W/m2
06:14 8.5 °C 6.0 °C 1006.3 hPa West 11.1 km/h 20.9 km/h 84% 0.0 mm 0.00 W/m2
06:19 8.7 °C 6.3 °C 1006.3 hPa West 9.7 km/h 25.7 km/h 85% 0.0 mm 0.00 W/m2
06:24 8.7 °C 6.3 °C 1006.7 hPa WNW 9.7 km/h 22.5 km/h 85% 0.0 mm 0.00 W/m2
06:29 8.7 °C 6.1 °C 1006.7 hPa NW 17.7 km/h 38.6 km/h 84% 0.0 mm 0.00 W/m2
06:34 8.8 °C 6.2 °C 1006.7 hPa West 22.7 km/h 29.0 km/h 84% 0.0 mm 0.00 W/m2
06:39 8.8 °C 6.2 °C 1006.7 hPa WNW 11.1 km/h 35.4 km/h 84% 0.0 mm 0.00 W/m2
06:44 8.8 °C 6.2 °C 1006.7 hPa West 13.0 km/h 20.9 km/h 84% 0.0 mm 0.00 W/m2
06:49 8.9 °C 6.2 °C 1006.7 hPa WNW 30.6 km/h 30.6 km/h 83% 0.0 mm 0.00 W/m2
06:54 9.0 °C 6.1 °C 1006.7 hPa WNW 13.0 km/h 25.7 km/h 82% 0.0 mm 0.00 W/m2
06:59 9.0 °C 6.1 °C 1006.7 hPa West 11.1 km/h 19.3 km/h 82% 0.0 mm 0.00 W/m2
07:04 9.1 °C 6.2 °C 1007.0 hPa WNW 11.1 km/h 24.1 km/h 82% 0.0 mm 0.00 W/m2
07:09 9.2 °C 6.3 °C 1006.7 hPa WNW 17.7 km/h 19.3 km/h 82% 0.0 mm 0.00 W/m2
07:14 9.2 °C 6.3 °C 1007.0 hPa West 32.2 km/h 32.2 km/h 82% 0.0 mm 0.00 W/m2
07:19 9.3 °C 6.4 °C 1007.0 hPa WNW 14.3 km/h 20.9 km/h 82% 0.0 mm 0.00 W/m2
07:24 9.3 °C 6.2 °C 1007.0 hPa WSW 24.1 km/h 29.0 km/h 81% 0.0 mm 0.00 W/m2
07:29 9.4 °C 6.1 °C 1007.0 hPa West 17.7 km/h 22.5 km/h 80% 0.0 mm 0.00 W/m2
07:34 9.4 °C 6.1 °C 1007.0 hPa NW 6.4 km/h 30.6 km/h 80% 0.0 mm 0.00 W/m2
07:39 9.5 °C 6.0 °C 1007.0 hPa WNW 6.4 km/h 22.5 km/h 79% 0.0 mm 0.00 W/m2
07:44 9.4 °C 5.9 °C 1007.3 hPa West 7.9 km/h 17.7 km/h 79% 0.0 mm 0.00 W/m2
07:49 9.5 °C 6.2 °C 1007.3 hPa West 22.7 km/h 22.5 km/h 80% 0.0 mm 0.00 W/m2
07:54 9.6 °C 6.5 °C 1007.3 hPa WNW 9.7 km/h 33.8 km/h 81% 0.0 mm 0.00 W/m2
07:59 9.5 °C 6.6 °C 1007.0 hPa WNW 17.7 km/h 25.7 km/h 82% 0.0 mm 0.00 W/m2
08:04 9.5 °C 6.6 °C 1007.0 hPa West 11.1 km/h 14.5 km/h 82% 0.0 mm 5.00 W/m2
08:09 9.5 °C 6.8 °C 1007.0 hPa WNW 25.7 km/h 25.7 km/h 83% 0.0 mm 9.00 W/m2
08:14 9.5 °C 6.8 °C 1007.0 hPa WNW 13.0 km/h 22.5 km/h 83% 0.0 mm 7.00 W/m2
08:19 9.5 °C 6.8 °C 1007.0 hPa WNW 9.7 km/h 12.9 km/h 83% 0.0 mm 16.00 W/m2
08:24 9.7 °C 7.0 °C 1007.0 hPa West 6.4 km/h 24.1 km/h 83% 0.0 mm 25.00 W/m2
08:29 9.7 °C 7.0 °C 1007.0 hPa WNW 14.3 km/h 25.7 km/h 83% 0.0 mm 21.00 W/m2
08:34 9.7 °C 6.8 °C 1007.0 hPa WNW 9.7 km/h 30.6 km/h 82% 0.0 mm 21.00 W/m2
08:39 9.8 °C 6.7 °C 1006.7 hPa West 17.7 km/h 25.7 km/h 81% 0.0 mm 25.00 W/m2
08:44 9.8 °C 6.7 °C 1006.7 hPa NW 11.1 km/h 24.1 km/h 81% 0.0 mm 33.00 W/m2
08:49 9.9 °C 6.8 °C 1006.7 hPa WNW 14.3 km/h 29.0 km/h 81% 0.0 mm 37.00 W/m2
08:54 9.9 °C 6.8 °C 1006.7 hPa WNW 20.9 km/h 20.9 km/h 81% 0.0 mm 37.00 W/m2
08:59 9.9 °C 6.8 °C 1006.7 hPa West 7.9 km/h 17.7 km/h 81% 0.0 mm 44.00 W/m2
09:04 9.9 °C 6.8 °C 1006.3 hPa WNW 14.3 km/h 17.7 km/h 81% 0.0 mm 46.00 W/m2
09:09 10.0 °C 7.1 °C 1006.7 hPa West 6.4 km/h 29.0 km/h 82% 0.0 mm 40.00 W/m2
09:14 10.0 °C 7.2 °C 1006.3 hPa West 19.5 km/h 29.0 km/h 83% 0.0 mm 42.00 W/m2
09:19 10.0 °C 7.2 °C 1006.3 hPa West 11.1 km/h 27.4 km/h 83% 0.0 mm 51.00 W/m2
09:24 10.2 °C 7.4 °C 1006.3 hPa West 14.3 km/h 25.7 km/h 83% 0.0 mm 28.00 W/m2
09:29 10.1 °C 7.3 °C 1006.3 hPa WNW 27.4 km/h 30.6 km/h 83% 0.0 mm 58.00 W/m2
09:34 10.0 °C 7.4 °C 1006.3 hPa West 13.0 km/h 25.7 km/h 84% 0.0 mm 51.00 W/m2
09:39 9.8 °C 7.4 °C 1006.3 hPa West 14.3 km/h 27.4 km/h 85% 0.0 mm 18.00 W/m2
09:44 9.4 °C 7.5 °C 1006.3 hPa WNW 17.7 km/h 24.1 km/h 88% 0.3 mm 40.00 W/m2
09:49 9.2 °C 7.5 °C 1006.3 hPa West 11.1 km/h 24.1 km/h 89% 0.3 mm 19.00 W/m2
09:54 9.2 °C 7.6 °C 1006.3 hPa WNW 24.1 km/h 25.7 km/h 90% 0.3 mm 25.00 W/m2
09:59 9.3 °C 7.9 °C 1006.3 hPa West 11.1 km/h 25.7 km/h 91% 0.3 mm 28.00 W/m2
10:04 9.3 °C 7.9 °C 1006.0 hPa WNW 11.1 km/h 27.4 km/h 91% 0.3 mm 30.00 W/m2
10:09 9.4 °C 8.0 °C 1006.0 hPa WSW 11.1 km/h 25.7 km/h 91% 0.3 mm 39.00 W/m2
10:14 9.5 °C 8.1 °C 1006.0 hPa WSW 6.4 km/h 30.6 km/h 91% 0.3 mm 23.00 W/m2
10:19 9.5 °C 8.1 °C 1006.0 hPa West 16.3 km/h 25.7 km/h 91% 0.3 mm 25.00 W/m2
10:24 9.6 °C 8.0 °C 1006.0 hPa West 13.0 km/h 29.0 km/h 90% 0.3 mm 39.00 W/m2
10:29 9.6 °C 8.0 °C 1005.6 hPa WSW 17.7 km/h 22.5 km/h 90% 0.3 mm 44.00 W/m2
10:34 9.7 °C 8.1 °C 1005.6 hPa West 14.3 km/h 25.7 km/h 90% 0.3 mm 49.00 W/m2
10:39 9.7 °C 8.0 °C 1005.6 hPa West 9.7 km/h 25.7 km/h 89% 0.3 mm 49.00 W/m2
10:44 9.8 °C 8.1 °C 1005.6 hPa West 13.0 km/h 22.5 km/h 89% 0.0 mm 46.00 W/m2
10:49 9.7 °C 7.8 °C 1005.3 hPa WSW 9.7 km/h 16.1 km/h 88% 0.0 mm 46.00 W/m2
10:54 9.7 °C 7.8 °C 1005.3 hPa SW 16.3 km/h 20.9 km/h 88% 0.0 mm 70.00 W/m2
10:59 9.8 °C 7.9 °C 1005.0 hPa SW 6.4 km/h 12.9 km/h 88% 0.0 mm 49.00 W/m2
11:04 9.8 °C 7.9 °C 1005.0 hPa WSW 20.9 km/h 20.9 km/h 88% 0.0 mm 46.00 W/m2
11:09 9.8 °C 7.9 °C 1004.6 hPa WSW 14.3 km/h 14.5 km/h 88% 0.0 mm 49.00 W/m2
11:14 9.9 °C 8.0 °C 1004.6 hPa WSW 3.2 km/h 22.5 km/h 88% 0.0 mm 69.00 W/m2
11:19 9.9 °C 8.0 °C 1004.6 hPa SW 6.4 km/h 16.1 km/h 88% 0.0 mm 69.00 W/m2
11:24 10.0 °C 8.3 °C 1004.3 hPa WSW 9.7 km/h 16.1 km/h 89% 0.0 mm 58.00 W/m2
11:29 10.0 °C 8.3 °C 1004.3 hPa SW 19.3 km/h 19.3 km/h 89% 0.0 mm 58.00 W/m2
11:34 10.1 °C 8.4 °C 1004.3 hPa West 6.4 km/h 12.9 km/h 89% 0.0 mm 72.00 W/m2
11:39 10.2 °C 8.5 °C 1003.9 hPa WSW 13.0 km/h 19.3 km/h 89% 0.0 mm 65.00 W/m2
11:44 10.3 °C 8.6 °C 1003.9 hPa WSW 20.9 km/h 22.5 km/h 89% 0.0 mm 65.00 W/m2
11:49 10.4 °C 8.7 °C 1003.9 hPa WSW 13.0 km/h 19.3 km/h 89% 0.0 mm 40.00 W/m2
11:54 10.5 °C 8.8 °C 1003.6 hPa SSW 14.3 km/h 19.3 km/h 89% 0.0 mm 54.00 W/m2
11:59 10.6 °C 8.9 °C 1003.3 hPa SW 7.9 km/h 27.4 km/h 89% 0.0 mm 56.00 W/m2
12:04 10.7 °C 9.0 °C 1003.3 hPa WSW 6.4 km/h 29.0 km/h 89% 0.0 mm 53.00 W/m2
12:09 10.8 °C 9.1 °C 1002.9 hPa WNW 7.9 km/h 16.1 km/h 89% 0.0 mm 39.00 W/m2
12:14 10.9 °C 9.2 °C 1002.9 hPa West 7.9 km/h 20.9 km/h 89% 0.0 mm 39.00 W/m2
12:19 10.9 °C 9.2 °C 1002.9 hPa WSW 17.7 km/h 17.7 km/h 89% 0.0 mm 49.00 W/m2
12:24 11.0 °C 9.3 °C 1002.9 hPa West 9.7 km/h 22.5 km/h 89% 0.0 mm 37.00 W/m2
12:29 11.1 °C 9.4 °C 1002.6 hPa WSW 9.7 km/h 16.1 km/h 89% 0.0 mm 47.00 W/m2
12:34 11.2 °C 9.5 °C 1002.3 hPa WNW 7.9 km/h 27.4 km/h 89% 0.0 mm 40.00 W/m2
12:39 11.3 °C 9.6 °C 1002.3 hPa West 9.7 km/h 17.7 km/h 89% 0.0 mm 42.00 W/m2
12:44 11.4 °C 9.7 °C 1002.6 hPa WSW 22.7 km/h 30.6 km/h 89% 0.0 mm 54.00 W/m2
12:49 11.4 °C 9.7 °C 1002.3 hPa West 7.9 km/h 24.1 km/h 89% 0.0 mm 44.00 W/m2
12:54 11.4 °C 9.8 °C 1002.3 hPa West 13.0 km/h 22.5 km/h 90% 0.0 mm 30.00 W/m2
12:59 11.4 °C 9.8 °C 1002.3 hPa WSW 9.7 km/h 24.1 km/h 90% 0.0 mm 39.00 W/m2
13:04 11.3 °C 9.7 °C 1001.9 hPa West 13.0 km/h 16.1 km/h 90% 0.0 mm 60.00 W/m2
13:09 11.2 °C 9.8 °C 1001.9 hPa WSW 19.5 km/h 27.4 km/h 91% 0.3 mm 56.00 W/m2
13:14 11.1 °C 9.7 °C 1001.9 hPa West 38.6 km/h 38.6 km/h 91% 0.3 mm 83.00 W/m2
13:19 11.1 °C 9.7 °C 1001.9 hPa West 17.7 km/h 32.2 km/h 91% 0.3 mm 107.00 W/m2
13:24 11.2 °C 9.6 °C 1001.6 hPa West 11.1 km/h 33.8 km/h 90% 0.3 mm 69.00 W/m2
13:29 11.2 °C 9.5 °C 1001.6 hPa NW 7.9 km/h 33.8 km/h 89% 0.3 mm 91.00 W/m2
13:34 11.3 °C 9.6 °C 1001.6 hPa West 16.3 km/h 27.4 km/h 89% 0.3 mm 185.00 W/m2
13:39 11.5 °C 9.6 °C 1001.6 hPa WSW 11.1 km/h 38.6 km/h 88% 0.3 mm 72.00 W/m2
13:44 11.6 °C 9.7 °C 1001.6 hPa West 11.1 km/h 27.4 km/h 88% 0.3 mm 137.00 W/m2
13:49 11.7 °C 9.8 °C 1001.2 hPa West 11.1 km/h 27.4 km/h 88% 0.3 mm 86.00 W/m2
13:54 11.7 °C 9.8 °C 1001.2 hPa West 11.1 km/h 14.5 km/h 88% 0.3 mm 72.00 W/m2
13:59 11.7 °C 9.8 °C 1001.2 hPa West 13.0 km/h 25.7 km/h 88% 0.3 mm 113.00 W/m2
14:04 11.7 °C 9.8 °C 1001.2 hPa West 13.0 km/h 27.4 km/h 88% 0.0 mm 104.00 W/m2
14:09 11.8 °C 9.9 °C 1000.9 hPa West 32.2 km/h 32.2 km/h 88% 0.0 mm 86.00 W/m2
14:14 11.8 °C 9.7 °C 1000.9 hPa WSW 20.9 km/h 32.2 km/h 87% 0.0 mm 67.00 W/m2
14:19 11.8 °C 9.5 °C 1000.9 hPa NW 43.4 km/h 43.4 km/h 86% 0.0 mm 88.00 W/m2
14:24 11.9 °C 9.5 °C 1000.6 hPa NW 16.3 km/h 33.8 km/h 85% 0.3 mm 120.00 W/m2
14:29 12.0 °C 9.6 °C 1000.6 hPa WNW 30.6 km/h 38.6 km/h 85% 0.3 mm 90.00 W/m2
14:34 12.0 °C 9.6 °C 1000.2 hPa WNW 22.7 km/h 33.8 km/h 85% 0.3 mm 93.00 W/m2
14:39 12.0 °C 9.6 °C 1000.2 hPa West 9.7 km/h 22.5 km/h 85% 0.3 mm 81.00 W/m2
14:44 11.9 °C 9.5 °C 1000.2 hPa WNW 32.0 km/h 32.2 km/h 85% 0.3 mm 33.00 W/m2
14:49 11.9 °C 9.5 °C 1000.2 hPa West 25.9 km/h 45.1 km/h 85% 0.3 mm 23.00 W/m2
14:54 11.7 °C 9.3 °C 1000.2 hPa WNW 22.7 km/h 51.5 km/h 85% 0.3 mm 26.00 W/m2
14:59 11.4 °C 9.1 °C 1000.2 hPa NW 28.8 km/h 29.0 km/h 86% 0.3 mm 7.00 W/m2
15:04 11.0 °C 9.1 °C 1000.6 hPa WNW 46.7 km/h 46.7 km/h 88% 0.3 mm 14.00 W/m2
15:09 10.7 °C 9.0 °C 1000.6 hPa WNW 13.0 km/h 33.8 km/h 89% 0.5 mm 25.00 W/m2
15:14 10.5 °C 8.9 °C 1000.6 hPa WNW 14.3 km/h 29.0 km/h 90% 0.5 mm 23.00 W/m2
15:19 10.5 °C 8.9 °C 1000.2 hPa West 37.0 km/h 37.0 km/h 90% 0.5 mm 19.00 W/m2
15:24 10.5 °C 8.9 °C 1000.6 hPa West 16.3 km/h 37.0 km/h 90% 0.3 mm 11.00 W/m2
15:29 10.5 °C 8.9 °C 1000.2 hPa West 11.1 km/h 38.6 km/h 90% 0.3 mm 16.00 W/m2
15:34 10.5 °C 8.9 °C 1000.2 hPa West 13.0 km/h 41.8 km/h 90% 0.3 mm 9.00 W/m2
15:39 10.5 °C 8.9 °C 1000.2 hPa West 30.6 km/h 32.2 km/h 90% 0.3 mm 9.00 W/m2
15:44 10.5 °C 8.9 °C 1000.2 hPa WSW 24.1 km/h 45.1 km/h 90% 0.3 mm 7.00 W/m2
15:49 10.6 °C 8.9 °C 1000.2 hPa WSW 16.3 km/h 41.8 km/h 89% 0.3 mm 7.00 W/m2
15:54 10.6 °C 8.7 °C 1000.2 hPa WSW 20.9 km/h 33.8 km/h 88% 0.3 mm 5.00 W/m2
15:59 10.7 °C 8.8 °C 1000.2 hPa WSW 27.4 km/h 54.7 km/h 88% 0.3 mm 0.00 W/m2
16:04 10.8 °C 8.7 °C 1000.2 hPa West 17.7 km/h 33.8 km/h 87% 0.0 mm 0.00 W/m2
16:09 10.8 °C 8.6 °C 1000.2 hPa West 32.0 km/h 38.6 km/h 86% 0.0 mm 0.00 W/m2
16:14 10.7 °C 8.5 °C 1000.2 hPa WNW 28.8 km/h 35.4 km/h 86% 0.0 mm 0.00 W/m2
16:19 10.7 °C 8.5 °C 1000.2 hPa WNW 17.7 km/h 25.7 km/h 86% 0.0 mm 0.00 W/m2
16:24 10.7 °C 8.5 °C 999.9 hPa SW 37.0 km/h 37.0 km/h 86% 0.0 mm 0.00 W/m2
16:29 10.7 °C 8.5 °C 999.9 hPa NNW 13.0 km/h 20.9 km/h 86% 0.0 mm 0.00 W/m2
16:34 10.7 °C 8.5 °C 999.9 hPa WSW 33.8 km/h 33.8 km/h 86% 0.0 mm 0.00 W/m2
16:39 10.8 °C 8.4 °C 999.5 hPa West 11.1 km/h 33.8 km/h 85% 0.0 mm 0.00 W/m2
16:44 10.8 °C 8.4 °C 999.9 hPa West 14.3 km/h 37.0 km/h 85% 0.0 mm 0.00 W/m2
16:49 10.9 °C 8.5 °C 999.5 hPa WNW 9.7 km/h 43.4 km/h 85% 0.0 mm 0.00 W/m2
16:54 10.8 °C 8.2 °C 999.9 hPa WSW 25.9 km/h 43.4 km/h 84% 0.0 mm 0.00 W/m2
16:59 10.8 °C 8.2 °C 999.9 hPa West 17.7 km/h 35.4 km/h 84% 0.0 mm 0.00 W/m2
17:04 10.7 °C 8.3 °C 999.9 hPa WSW 27.4 km/h 33.8 km/h 85% 0.0 mm 0.00 W/m2
17:09 10.6 °C 8.2 °C 999.9 hPa West 14.3 km/h 35.4 km/h 85% 0.0 mm 0.00 W/m2
17:14 10.5 °C 8.1 °C 999.5 hPa WNW 9.7 km/h 20.9 km/h 85% 0.0 mm 0.00 W/m2
17:19 10.3 °C 7.9 °C 999.5 hPa West 11.1 km/h 32.2 km/h 85% 0.0 mm 0.00 W/m2
17:24 10.3 °C 7.9 °C 999.5 hPa WNW 19.5 km/h 32.2 km/h 85% 0.0 mm 0.00 W/m2
17:29 10.2 °C 8.0 °C 999.5 hPa WNW 22.7 km/h 40.2 km/h 86% 0.0 mm 0.00 W/m2
17:34 10.0 °C 8.1 °C 999.5 hPa West 25.9 km/h 41.8 km/h 88% 0.0 mm 0.00 W/m2
17:39 10.0 °C 8.1 °C 999.5 hPa WNW 13.0 km/h 30.6 km/h 88% 0.0 mm 0.00 W/m2
17:44 10.1 °C 8.2 °C 999.5 hPa SW 24.1 km/h 29.0 km/h 88% 0.0 mm 0.00 W/m2
17:49 9.8 °C 7.9 °C 999.9 hPa NW 28.8 km/h 35.4 km/h 88% 0.5 mm 0.00 W/m2
17:54 9.7 °C 8.0 °C 999.9 hPa WNW 22.7 km/h 38.6 km/h 89% 0.8 mm 0.00 W/m2
17:59 9.7 °C 8.0 °C 999.9 hPa WNW 25.9 km/h 29.0 km/h 89% 0.8 mm 0.00 W/m2
18:04 9.6 °C 7.9 °C 999.9 hPa NW 13.0 km/h 24.1 km/h 89% 0.8 mm 0.00 W/m2
18:09 9.5 °C 7.8 °C 999.9 hPa WNW 11.1 km/h 30.6 km/h 89% 0.8 mm 0.00 W/m2
18:14 9.4 °C 7.8 °C 999.9 hPa West 17.7 km/h 27.4 km/h 90% 0.8 mm 0.00 W/m2
18:19 9.4 °C 7.8 °C 999.9 hPa West 11.1 km/h 32.2 km/h 90% 0.8 mm 0.00 W/m2
18:24 9.5 °C 7.9 °C 999.9 hPa NW 14.3 km/h 22.5 km/h 90% 0.8 mm 0.00 W/m2
18:29 9.5 °C 7.8 °C 999.9 hPa West 14.3 km/h 37.0 km/h 89% 0.8 mm 0.00 W/m2
18:34 9.6 °C 7.9 °C 999.9 hPa WNW 16.3 km/h 30.6 km/h 89% 0.8 mm 0.00 W/m2
18:39 9.8 °C 7.9 °C 999.9 hPa WNW 28.8 km/h 37.0 km/h 88% 0.8 mm 0.00 W/m2
18:44 9.8 °C 7.7 °C 999.9 hPa WNW 20.9 km/h 33.8 km/h 87% 0.5 mm 0.00 W/m2
18:49 9.8 °C 7.6 °C 999.9 hPa WNW 13.0 km/h 38.6 km/h 86% 0.0 mm 0.00 W/m2
18:54 9.9 °C 7.5 °C 999.9 hPa NNW 17.7 km/h 41.8 km/h 85% 0.0 mm 0.00 W/m2
18:59 9.9 °C 7.5 °C 1000.2 hPa NW 16.3 km/h 41.8 km/h 85% 0.0 mm 0.00 W/m2
19:04 9.9 °C 7.5 °C 1000.2 hPa WNW 24.1 km/h 37.0 km/h 85% 0.0 mm 0.00 W/m2
19:09 9.7 °C 7.5 °C 1000.2 hPa NW 19.5 km/h 27.4 km/h 86% 0.0 mm 0.00 W/m2
19:14 9.6 °C 7.4 °C 1000.2 hPa West 14.3 km/h 20.9 km/h 86% 0.0 mm 0.00 W/m2
19:19 9.7 °C 7.3 °C 1000.2 hPa WNW 7.9 km/h 48.3 km/h 85% 0.0 mm 0.00 W/m2
19:24 9.8 °C 7.2 °C 999.9 hPa WNW 13.0 km/h 27.4 km/h 84% 0.0 mm 0.00 W/m2
19:29 9.8 °C 7.2 °C 1000.2 hPa WNW 40.4 km/h 40.2 km/h 84% 0.0 mm 0.00 W/m2
19:34 9.8 °C 7.2 °C 1000.2 hPa West 16.3 km/h 27.4 km/h 84% 0.0 mm 0.00 W/m2
19:39 9.7 °C 7.1 °C 1000.2 hPa WNW 9.7 km/h 20.9 km/h 84% 0.0 mm 0.00 W/m2
19:44 9.7 °C 7.1 °C 1000.2 hPa WNW 7.9 km/h 17.7 km/h 84% 0.0 mm 0.00 W/m2
19:49 9.7 °C 7.1 °C 1000.2 hPa WSW 35.4 km/h 35.4 km/h 84% 0.0 mm 0.00 W/m2
19:54 9.7 °C 7.1 °C 1000.2 hPa WNW 17.7 km/h 27.4 km/h 84% 0.0 mm 0.00 W/m2
19:59 9.3 °C 7.1 °C 1000.2 hPa NNW 24.1 km/h 25.7 km/h 86% 0.3 mm 0.00 W/m2
20:04 9.2 °C 7.1 °C 1000.2 hPa NW 14.3 km/h 35.4 km/h 87% 0.3 mm 0.00 W/m2
20:09 9.1 °C 7.1 °C 1000.2 hPa West 30.6 km/h 30.6 km/h 87% 0.3 mm 0.00 W/m2
20:14 9.2 °C 7.3 °C 1000.2 hPa West 9.7 km/h 25.7 km/h 88% 0.3 mm 0.00 W/m2
20:19 9.2 °C 7.3 °C 1000.2 hPa WNW 14.3 km/h 24.1 km/h 88% 0.3 mm 0.00 W/m2
20:24 9.3 °C 7.6 °C 1000.2 hPa WNW 16.3 km/h 29.0 km/h 89% 0.3 mm 0.00 W/m2
20:29 9.4 °C 7.5 °C 1000.2 hPa NW 14.3 km/h 37.0 km/h 88% 0.5 mm 0.00 W/m2
20:34 9.4 °C 7.5 °C 1000.2 hPa West 33.8 km/h 38.6 km/h 88% 0.5 mm 0.00 W/m2
20:39 9.6 °C 7.5 °C 1000.2 hPa WNW 20.9 km/h 27.4 km/h 87% 0.5 mm 0.00 W/m2
20:44 9.6 °C 7.4 °C 1000.2 hPa WNW 38.6 km/h 38.6 km/h 86% 0.5 mm 0.00 W/m2
20:49 9.7 °C 7.3 °C 1000.2 hPa West 14.3 km/h 29.0 km/h 85% 0.5 mm 0.00 W/m2
20:54 9.7 °C 7.1 °C 1000.6 hPa West 41.8 km/h 41.8 km/h 84% 0.3 mm 0.00 W/m2
20:59 9.8 °C 7.1 °C 1000.2 hPa West 33.8 km/h 45.1 km/h 83% 0.3 mm 0.00 W/m2
21:04 9.7 °C 7.0 °C 1000.2 hPa West 25.9 km/h 41.8 km/h 83% 0.3 mm 0.00 W/m2
21:09 9.4 °C 6.7 °C 1000.6 hPa WNW 27.4 km/h 40.2 km/h 83% 0.3 mm 0.00 W/m2
21:14 9.3 °C 6.6 °C 1000.2 hPa WNW 17.7 km/h 30.6 km/h 83% 0.3 mm 0.00 W/m2
21:19 9.1 °C 6.4 °C 1000.2 hPa WNW 20.9 km/h 37.0 km/h 83% 0.3 mm 0.00 W/m2
21:24 9.2 °C 6.6 °C 1000.2 hPa WNW 14.3 km/h 33.8 km/h 84% 0.3 mm 0.00 W/m2
21:29 9.2 °C 6.6 °C 1000.2 hPa WNW 17.7 km/h 30.6 km/h 84% 0.0 mm 0.00 W/m2
21:34 9.3 °C 6.9 °C 1000.6 hPa WSW 24.1 km/h 30.6 km/h 85% 0.0 mm 0.00 W/m2
21:39 8.8 °C 6.8 °C 1000.6 hPa West 11.1 km/h 40.2 km/h 87% 1.0 mm 0.00 W/m2
21:44 8.3 °C 6.4 °C 1000.2 hPa WNW 6.4 km/h 30.6 km/h 88% 1.0 mm 0.00 W/m2
21:49 8.1 °C 6.2 °C 1000.2 hPa WNW 13.0 km/h 32.2 km/h 88% 1.0 mm 0.00 W/m2
21:54 8.2 °C 6.3 °C 1000.6 hPa NW 13.0 km/h 24.1 km/h 88% 1.0 mm 0.00 W/m2
21:59 8.2 °C 6.5 °C 1000.6 hPa WNW 33.8 km/h 33.8 km/h 89% 1.0 mm 0.00 W/m2
22:04 8.4 °C 6.7 °C 1000.6 hPa West 11.1 km/h 20.9 km/h 89% 1.0 mm 0.00 W/m2
22:09 8.4 °C 6.7 °C 1000.6 hPa WNW 6.4 km/h 17.7 km/h 89% 1.0 mm 0.00 W/m2
22:14 8.7 °C 7.0 °C 1000.6 hPa West 19.5 km/h 32.2 km/h 89% 1.0 mm 0.00 W/m2
22:19 8.9 °C 7.0 °C 1000.6 hPa WNW 25.9 km/h 25.7 km/h 88% 1.0 mm 0.00 W/m2
22:24 9.0 °C 7.0 °C 1000.6 hPa West 25.9 km/h 29.0 km/h 87% 1.0 mm 0.00 W/m2
22:29 9.1 °C 7.1 °C 1000.6 hPa West 11.1 km/h 33.8 km/h 87% 1.0 mm 0.00 W/m2
22:34 9.2 °C 7.0 °C 1000.9 hPa NW 4.7 km/h 22.5 km/h 86% 1.0 mm 0.00 W/m2
22:39 9.2 °C 7.0 °C 1000.9 hPa WSW 35.2 km/h 38.6 km/h 86% 0.3 mm 0.00 W/m2
22:44 9.2 °C 7.0 °C 1000.6 hPa NW 20.9 km/h 35.4 km/h 86% 0.0 mm 0.00 W/m2
22:49 9.2 °C 6.8 °C 1000.9 hPa West 25.9 km/h 40.2 km/h 85% 0.0 mm 0.00 W/m2
22:54 9.2 °C 6.6 °C 1000.9 hPa SW 24.1 km/h 29.0 km/h 84% 0.0 mm 0.00 W/m2
22:59 9.2 °C 6.6 °C 1000.6 hPa WNW 17.7 km/h 33.8 km/h 84% 0.0 mm 0.00 W/m2
23:04 9.2 °C 6.6 °C 1000.6 hPa WNW 27.4 km/h 32.2 km/h 84% 0.0 mm 0.00 W/m2
23:09 9.0 °C 6.4 °C 1000.9 hPa WNW 14.3 km/h 29.0 km/h 84% 0.0 mm 0.00 W/m2
23:14 9.0 °C 6.6 °C 1000.9 hPa WNW 16.3 km/h 30.6 km/h 85% 0.0 mm 0.00 W/m2
23:19 8.9 °C 6.5 °C 1000.9 hPa West 24.1 km/h 29.0 km/h 85% 0.0 mm 0.00 W/m2
23:24 9.0 °C 6.6 °C 1001.2 hPa NW 20.9 km/h 24.1 km/h 85% 0.0 mm 0.00 W/m2
23:29 9.0 °C 6.6 °C 1000.9 hPa WNW 16.3 km/h 22.5 km/h 85% 0.0 mm 0.00 W/m2
23:34 9.2 °C 6.6 °C 1001.2 hPa West 24.1 km/h 38.6 km/h 84% 0.0 mm 0.00 W/m2
23:39 9.3 °C 6.7 °C 1001.2 hPa WNW 20.9 km/h 22.5 km/h 84% 0.0 mm 0.00 W/m2
23:44 8.8 °C 6.4 °C 1000.9 hPa NW 24.1 km/h 45.1 km/h 85% 0.8 mm 0.00 W/m2
23:49 8.5 °C 6.1 °C 1000.9 hPa WNW 17.7 km/h 45.1 km/h 85% 0.8 mm 0.00 W/m2
23:54 8.3 °C 6.1 °C 1001.2 hPa WNW 11.1 km/h 30.6 km/h 86% 0.8 mm 0.00 W/m2
23:59 8.3 °C 6.3 °C 1000.9 hPa WNW 27.4 km/h 27.4 km/h 87% 0.8 mm 0.00 W/m2